TimeCST,TemperatureF,Dew PointF,Humidity,Sea Level PressureIn,VisibilityMPH,Wind Direction,Wind SpeedMPH,Gust SpeedMPH,PrecipitationIn,Events,Conditions,WindDirDegrees,DateUTC
12:53 AM,27.0,23.0,85,30.19,10.0,WSW,6.9,-,N/A,,Clear,240,2013-11-05 06:53:00
1:53 AM,26.1,21.9,84,30.20,10.0,WSW,6.9,-,N/A,,Clear,250,2013-11-05 07:53:00
2:53 AM,28.9,24.1,82,30.21,10.0,WNW,5.8,-,N/A,,Partly Cloudy,290,2013-11-05 08:53:00
3:53 AM,30.9,24.1,76,30.20,10.0,NW,4.6,-,N/A,,Mostly Cloudy,310,2013-11-05 09:53:00
4:53 AM,30.9,25.0,79,30.20,10.0,NNW,9.2,-,N/A,,Overcast,330,2013-11-05 10:53:00
5:53 AM,30.0,24.1,79,30.21,10.0,North,4.6,-,N/A,,Overcast,10,2013-11-05 11:53:00
6:53 AM,28.9,25.0,85,30.20,10.0,North,5.8,-,N/A,,Mostly Cloudy,10,2013-11-05 12:53:00
7:53 AM,30.0,25.0,82,30.21,10.0,Calm,Calm,-,N/A,,Overcast,0,2013-11-05 13:53:00
8:53 AM,32.0,23.0,69,30.25,10.0,South,10.4,-,N/A,,Overcast,170,2013-11-05 14:53:00
9:53 AM,34.0,24.1,67,30.28,10.0,SSW,6.9,-,N/A,,Overcast,200,2013-11-05 15:53:00
10:53 AM,35.1,21.9,59,30.27,10.0,South,4.6,-,N/A,,Overcast,180,2013-11-05 16:53:00
11:53 AM,36.0,19.0,50,30.26,10.0,South,3.5,-,N/A,,Mostly Cloudy,190,2013-11-05 17:53:00
12:53 PM,37.0,18.0,46,30.22,10.0,Calm,Calm,-,N/A,,Overcast,0,2013-11-05 18:53:00
1:53 PM,37.0,19.0,48,30.18,10.0,NNE,4.6,-,N/A,,Overcast,20,2013-11-05 19:53:00
2:53 PM,37.0,19.9,50,30.16,10.0,North,6.9,-,N/A,,Overcast,10,2013-11-05 20:53:00
3:53 PM,36.0,19.9,52,30.15,10.0,NNE,6.9,-,N/A,,Overcast,20,2013-11-05 21:53:00
4:53 PM,35.1,21.9,59,30.15,10.0,NNE,4.6,-,N/A,,Overcast,30,2013-11-05 22:53:00
5:53 PM,34.0,21.9,61,30.15,10.0,North,5.8,-,N/A,,Overcast,360,2013-11-05 23:53:00
6:53 PM,34.0,23.0,64,30.16,10.0,North,5.8,-,N/A,,Overcast,360,2013-11-06 00:53:00
7:53 PM,32.0,23.0,69,30.17,10.0,North,3.5,-,N/A,,Overcast,10,2013-11-06 01:53:00
8:53 PM,32.0,24.1,73,30.16,10.0,NNW,5.8,-,N/A,,Overcast,340,2013-11-06 02:53:00
9:53 PM,33.1,24.1,70,30.16,10.0,NW,4.6,-,N/A,,Overcast,320,2013-11-06 03:53:00
10:53 PM,33.1,24.1,70,30.16,10.0,NNW,5.8,-,N/A,,Overcast,330,2013-11-06 04:53:00
11:53 PM,32.0,21.0,64,30.14,10.0,NNW,9.2,-,N/A,,Overcast,330,2013-11-06 05:53:00